Location: Bonn
(50.7330°N, 7.1000°E)
Time: 13:42:11
(UTC+02:00)

Cosmos 1933 Rocket - Visible Passes

Search period start: 24 April 2014 00:00
Search period end: 04 May 2014 00:00
Orbit: 609 x 632 km, 82.5° (Epoch: 23 April)

Date Brightness Start Highest point End Pass type
(mag) Time Alt. Az. Time Alt. Az. Time Alt. Az.
24 Apr 3.8 05:27:55 10° S 05:32:17 76° E 05:36:43 10° NNE visible
25 Apr 6.2 04:09:58 10° ESE 04:12:43 17° E 04:15:29 10° NE visible
26 Apr 5.5 04:26:33 10° SSE 04:30:16 27° E 04:34:01 10° NNE visible
27 Apr 4.5 04:43:43 10° SSE 04:47:54 47° E 04:52:10 10° NNE visible
28 Apr 6.6 03:27:48 10° E 03:28:34 10° E 03:29:20 10° ENE visible
28 Apr 3.6 05:01:16 10° S 05:05:39 83° E 05:10:06 10° NNE visible
29 Apr 6.1 03:43:05 10° SE 03:46:02 18° E 03:49:01 10° NE visible
29 Apr 3.7 05:19:10 10° SSW 05:23:29 57° WNW 05:27:53 10° N visible
30 Apr 5.3 03:59:46 10° SSE 04:03:36 30° E 04:07:28 10° NNE visible
01 May 4.3 04:16:59 10° S 04:21:15 51° E 04:25:34 10° NNE visible
02 May 6.3 03:00:25 10° E 03:01:52 11° E 03:03:19 10° ENE visible
02 May 3.6 04:34:55 12° S 04:39:00 90° ESE 04:43:29 10° N visible
03 May 5.9 03:16:12 10° SE 03:19:21 20° E 03:22:31 10° NE visible
03 May 3.9 04:52:50 12° SSW 04:56:51 52° WNW 05:01:14 10° N visible
